Regional Weather Roundup
Issued by NWS

Home | Current Version | Previous Version | Text Only | Print | Product List | Glossary On
Versions: 1 2 3 4 5 6 7 8 9 10 11 12 13 14 15 16 17 18 19 20 21 22 23 24 25 26 27 28 29 30 31 32 33 34 35 36 37 38 39 40 41 42 43 44 45 46 47 48 49 50
000
ASUS43 KLOT 291108
RWRIL

ILLINOIS REGIONAL WEATHER ROUNDUP
NATIONAL WEATHER SERVICE CHICAGO/ROMEOVILLE IL
600 AM CDT SAT AUG 29 2015

NOTE: "FAIR" INDICATES FEW OR NO CLOUDS BELOW 12,000 FEET WITH NO
SIGNIFICANT WEATHER AND/OR OBSTRUCTIONS TO VISIBILITY.

* THESE STATIONS ARE NOT UNDER NWS QUALITY CONTROL. THEY ALSO MAY NOT
  REPORT WEATHER SUCH AS PRECIPITATION OR FOG.

ILZ001-002-007-009-015-016-024-291200-
NORTHWEST ILLINOIS

CITY           SKY/WX    TMP DP  RH WIND       PRES   REMARKS
MOLINE         CLOUDY    69  62  78 S3        29.95R
STERLING*      CLOUDY    64  61  88 SE7       29.94F
SAVANNA*       RAIN      65  63  93 CALM      29.97R
$$

ILZ003-004-008-010-011-017-018-291200-
NORTH CENTRAL ILLINOIS

CITY           SKY/WX    TMP DP  RH WIND       PRES   REMARKS
ROCKFORD       CLOUDY    64  61  90 SE14      29.99F
FREEPORT*      RAIN      62  60  96 CALM      30.00R
ROCHELLE*      CLOUDY    63  61  95 SE8       29.99F
DE KALB*       RAIN      64  61  92 SE12G17   30.01F
PERU*          CLOUDY    64  62  91 E8        30.00S
$$

ILZ005-006-012>014-019>023-291200-
NORTHEAST ILLINOIS

CITY           SKY/WX    TMP DP  RH WIND       PRES   REMARKS
CHICAGO-OHARE  RAIN      63  62  97 SE9       30.02F FOG
CHICAGO-MIDWAY LGT RAIN  67  61  81 E5        30.04S
AURORA         LGT RAIN  64  62  93 SE6       30.04S FOG
LANSING*       CLOUDY    64  59  82 SE3       30.05S
JOLIET*        LGT RAIN  66  62  87 CALM      30.04R
WAUKEGAN       LGT RAIN  64  62  93 S6        30.05R
DUPAGE AIRPORT RAIN      63  61  93 SE6       30.02R FOG
KANKAKEE*      CLOUDY    63  61  94 CALM      30.05R
WHEELING       RAIN      64  61  90 VRB3      30.04F FOG
MORRIS*        RAIN      64  62  92 CALM      30.03R
ROMEOVILLE*    CLOUDY    64  60  88 SE5       30.04S
NORTHERLY ISL    N/A     64  60  87 CALM        N/A
$$

LMZ740>746-291200-
SOUTHERN LAKE MICHIGAN

STATION/POSITION SKY/WX   TEMP    WIND        PRES    VSBY  WAVE
                          AIR SEA DIR/SP/G                  HT/PER
                          (F)     (DEG/KT/KT) (MB)    (MI)  (FT/S)
SOUTHERN BUOY              69 68  160/ 12/ 16 1017.2R         1/ 4
WILMETTE HARBOR            60 56  330/  8/ 10   N/A           1/ 3
HARRISON CRIB              66     180/  8/ 10   N/A
BURNHAM HARBOR             63     150/  4/  6   N/A
BURNS HARBOR               68     160/  8/ 14 1017.9S
MICHIGAN CITY              67     130/ 10/ 11   N/A
MICHIGAN CITY 6N           68 70  170/ 10/ 12   N/A           1
ST. JOSEPH                 68 71  200/ 12/ 14   N/A           1/ 2
$$

ILZ025>027-034>036-040-047-049-050-058-095>099-291200-
WEST-CENTRAL ILLINOIS

CITY           SKY/WX    TMP DP  RH WIND       PRES   REMARKS
QUINCY         MOCLDY    68  62  81 S8        29.96F
GALESBURG*     CLOUDY    65  62  89 S6        29.97R
MACOMB*        CLOUDY    67  63  86 S3        30.00R
JACKSONVILLE*  CLOUDY    71  64  79 S7        29.98F
PITTSFIELD*    MOCLDY    68  64  84 S5        30.00S THUNDER
$$

ILZ028>032-037-038-041>044-048-051>054-059>061-291200-
CENTRAL ILLINOIS

CITY           SKY/WX    TMP DP  RH WIND       PRES   REMARKS
PONTIAC        CLOUDY    64  64  97 E3        30.03S
BLOOMINGTON    CLOUDY    66  63  90 S10       30.02F
DECATUR        CLOUDY    68  61  78 S7        30.02F
PEORIA         CLOUDY    69  62  78 S5        29.99S
LACON*         CLOUDY    65  61  87 S6        29.98F
LINCOLN*       CLOUDY    66  63  88 S3        30.01S
SPRINGFIELD    CLOUDY    69  64  84 S9        30.01R
TAYLORVILLE    CLOUDY    64  63  94 CALM      30.02S
$$

ILZ033-039-045-046-055>057-062-063-291200-
EAST-CENTRAL ILLINOIS

CITY           SKY/WX    TMP DP  RH WIND       PRES   REMARKS
CHAMPAIGN      LGT RAIN  66  61  84 SE5       30.04R
RANTOUL*       CLOUDY    66  62  89 CALM      30.04S
MATTOON        HAZE      68  60  75 S8        30.03S VSB 1/2
PARIS*         MOCLDY    63  61  95 SE3       30.06S
$$

ILZ079-100>102-291200-
SOUTHWEST ILLINOIS

CITY           SKY/WX    TMP DP  RH WIND       PRES   REMARKS
ALTON          MOCLDY    65  64  94 SE5       30.02R
BELLEVILLE     PTCLDY    66  66 100 CALM      30.01R
CAHOKIA*       PTCLDY    68  63  84 S3        30.01S
SPARTA*        MOCLDY    67  65  93 CALM      30.04S
$$

ILZ064>066-069>071-074>076-080>082-084>086-088>090-092>094-291200-
SOUTH-CENTRAL ILLINOIS

CITY           SKY/WX    TMP DP  RH WIND       PRES   REMARKS
CARBONDALE     PTCLDY    65  64  97 SE3       30.04S
CAIRO*         CLOUDY    68  68 100 CALM      30.05R
EFFINGHAM*     CLOUDY    66  62  86 E5        30.06S
MARION         PTCLDY    68  66  94 CALM      30.05S
MT. VERNON     MOCLDY    66  61  82 CALM      30.05F
SALEM*         MOCLDY    69  64  84 SE3       30.03F
METROPOLIS*    CLOUDY    71  69  92 CALM      30.06R
$$

ILZ067-068-072-073-078-083-087-091-291200-
SOUTHEAST ILLINOIS

CITY           SKY/WX    TMP DP  RH WIND       PRES   REMARKS
LAWRENCEVILLE  CLOUDY    65  63  93 CALM      30.06S
FLORA*         CLOUDY    65  63  91 CALM      30.05S
FAIRFIELD*     MOCLDY    67  65  93 CALM      30.04S
HARRISBURG*    MOCLDY    65  64  97 CALM      30.06R
ROBINSON*      MOCLDY    64  62  95 S3        30.07S
CARMI*         CLOUDY    64  63  99 CALM      30.06R
$$

ABBREVIATIONS USED IN REMARKS
   TC - TEMPERATURE IN CELSIUS
  WCI - WIND CHILL INDEX
   HX - HEAT INDEX
  VSB - VISIBILITY
$$



USA.gov is the U.S. government's official web portal to all federal, state and local government web resources and services.